Lid_Strength_Index
13 17 18 15 14 14 15 16 17 15 13 13 14 13 11 12 13 14 14 14 14 13 11 10 9 10 10 8 9 8 7 6 5 1 2 2 2 1 1 0 0 0 0 0
15 17 13 12 13 14 15 16 16 14 13 13 13 13 12 12 13 13 13 13 13 12 12 10 10 9 11 10 10 9 8 7 5 3 1 1 2 1 1 1 0 0 0 0
15 13 11 12 14 15 15 15 16 16 13 12 13 14 13 12 12 11 11 11 11 11 11 10 9 9 9 9 10 10 8 7 6 3 1 1 1 1 2 1 1 1 0 0
14 11 12 13 13 13 16 12 13 13 14 17 11 18 14 13 12 12 11 11 11 10 9 9 8 9 9 9 8 7 8 8 6 6 3 2 3 3 2 2 1 1 0 0
15 13 13 14 13 12 14 11 12 12 13 13 13 16 15 13 14 13 12 11 11 10 10 9 9 8 8 8 8 8 7 7 8 6 5 4 3 2 2 2 2 1 1 1
13 10 11 12 10 11 10 11 11 11 13 18 15 16 17 15 14 14 12 11 11 10 10 9 9 9 8 8 8 8 8 7 7 7 6 5 4 2 3 2 2 2 1 1
14 13 12 10 12 10 10 12 21 21 19 20 13 16 17 13 12 12 12 12 11 11 11 9 9 9 9 9 9 9 9 8 7 8 7 5 6 3 4 2 2 2 2 2
20 21 13 10 11 12 11 13 20 25 25 19 14 19 16 12 11 10 10 10 11 11 10 9 9 10 9 8 9 9 9 8 8 7 8 6 7 4 5 3 2 3 2 2
23 20 10 8 7 9 12 15 11 17 15 20 19 15 12 12 12 11 11 11 11 11 9 9 8 8 9 9 9 9 9 9 8 8 8 9 9 7 8 7 4 2 1 1
18 22 12 8 7 8 11 9 17 17 21 22 19 18 20 16 14 12 11 11 10 10 9 8 8 8 8 8 9 9 9 9 8 9 8 9 9 9 8 8 8 8 8 7
14 16 14 10 13 17 14 15 15 14 16 21 28 23 14 13 12 12 11 11 11 11 11 10 8 8 8 8 9 10 10 9 9 10 10 11 11 10 10 11 11 10 10 9
9 14 17 14 8 8 11 15 17 19 19 17 19 20 12 11 10 11 12 11 11 11 11 9 9 9 8 9 9 9 9 10 9 9 10 11 12 11 12 11 12 11 11 11
10 16 20 15 11 9 13 12 11 15 16 20 20 18 10 11 11 10 11 11 10 9 8 8 9 9 9 9 9 10 10 10 10 10 9 10 11 12 12 12 12 12 11 12
7 13 16 19 16 13 18 13 12 13 18 20 20 18 16 15 14 11 11 10 9 9 8 8 7 8 9 9 9 10 10 11 10 10 10 10 12 12 12 12 12 13 13 13
9 16 12 11 10 10 12 13 13 18 16 20 19 19 15 14 12 10 9 9 9 9 9 8 8 8 8 9 8 9 10 10 10 11 11 11 11 11 11 12 12 13 13 13
9 14 12 13 10 10 13 12 12 13 15 18 15 19 13 11 9 9 10 9 9 9 9 9 8 8 8 8 9 8 9 10 11 11 11 11 10 11 12 12 12 11 13 13
12 13 14 15 11 12 16 16 12 12 12 14 19 16 12 12 10 10 10 9 9 9 9 9 8 8 8 8 8 9 8 9 10 11 11 11 11 11 12 12 12 12 12 12
13 13 13 15 13 20 12 9 10 11 10 10 10 11 10 10 10 9 8 9 8 8 8 8 8 8 8 8 8 8 8 8 9 10 10 10 11 11 11 11 12 13 12 12
10 12 16 18 16 13 11 10 11 12 12 8 9 10 9 8 7 9 7 6 7 7 7 8 8 8 8 8 8 8 8 9 9 9 9 10 11 11 12 12 12 12 12 12
9 10 16 16 18 19 13 9 7 8 16 8 7 9 9 9 13 11 7 6 6 6 6 7 7 8 8 8 8 9 9 9 10 9 9 9 9 10 12 13 13 12 13 14
16 16 19 22 23 15 10 8 7 15 14 7 7 8 9 11 10 7 6 6 5 6 6 6 6 7 8 8 8 9 9 10 9 9 9 9 9 10 10 12 13 13 14 14
16 18 20 18 23 22 8 8 12 10 8 7 7 8 8 8 7 6 6 6 6 6 6 6 6 7 6 7 8 9 9 8 9 9 10 9 9 10 10 11 11 12 13 14
17 14 16 16 17 10 8 8 8 7 8 8 8 8 7 7 7 6 7 6 6 6 7 6 7 7 7 7 7 8 7 7 8 9 10 10 10 11 11 11 11 12 12 13
11 9 15 14 11 9 8 7 7 7 8 7 7 7 7 8 7 7 7 7 7 7 7 7 8 8 8 8 7 7 7 7 7 8 9 9 11 11 11 11 11 11 12 12
13 11 12 12 10 9 7 7 7 7 6 6 6 6 7 7 7 7 7 7 7 7 7 8 8 8 8 8 7 7 7 6 7 8 9 10 10 11 11 11 11 12 11 12
11 12 14 15 10 9 9 7 6 7 7 6 7 7 6 7 7 7 7 7 7 8 8 9 9 9 8 8 8 7 7 7 9 10 10 10 10 10 10 10 11 10 11 11